TimeMDT,TemperatureF,Dew PointF,Humidity,Sea Level PressureIn,VisibilityMPH,Wind Direction,Wind SpeedMPH,Gust SpeedMPH,PrecipitationIn,Events,Conditions,WindDirDegrees,DateUTC
12:51 AM,42.1,28.9,60,29.82,-9999.0,Calm,Calm,-,N/A,,Unknown,0,2012-11-01 06:51:00
1:51 AM,42.1,28.0,58,29.80,-9999.0,Variable,3.5,-,N/A,,Unknown,0,2012-11-01 07:51:00
2:51 AM,48.0,28.9,48,29.77,-9999.0,West,9.2,17.3,N/A,,Unknown,270,2012-11-01 08:51:00
3:51 AM,45.0,32.0,60,29.77,-9999.0,Variable,5.8,-,N/A,,Unknown,0,2012-11-01 09:51:00
4:51 AM,44.1,32.0,63,29.78,-9999.0,South,4.6,-,N/A,,Unknown,190,2012-11-01 10:51:00
5:51 AM,44.1,33.1,65,29.78,-9999.0,Variable,3.5,-,N/A,,Unknown,0,2012-11-01 11:51:00
6:51 AM,42.1,34.0,73,29.82,-9999.0,South,3.5,-,N/A,,Unknown,190,2012-11-01 12:51:00
7:51 AM,37.9,35.1,89,29.83,-9999.0,Variable,3.5,-,0.01,,Unknown,0,2012-11-01 13:51:00
8:51 AM,39.0,35.1,86,29.86,-9999.0,South,6.9,-,N/A,,Unknown,170,2012-11-01 14:51:00
9:51 AM,39.9,34.0,79,29.86,-9999.0,SE,5.8,16.1,N/A,,Unknown,140,2012-11-01 15:51:00
10:51 AM,41.0,34.0,76,29.86,-9999.0,SSE,6.9,-,N/A,,Unknown,150,2012-11-01 16:51:00
11:51 AM,42.1,33.1,70,29.84,-9999.0,SSE,9.2,-,N/A,,Unknown,160,2012-11-01 17:51:00
12:51 PM,44.1,33.1,65,29.85,-9999.0,SSE,11.5,-,N/A,,Unknown,160,2012-11-01 18:51:00
1:51 PM,45.0,34.0,65,29.83,-9999.0,SSE,9.2,17.3,N/A,,Unknown,150,2012-11-01 19:51:00
2:51 PM,46.0,25.0,44,29.80,-9999.0,SSW,11.5,19.6,N/A,,Unknown,210,2012-11-01 20:51:00
3:51 PM,39.0,33.1,79,29.88,-9999.0,North,10.4,19.6,N/A,,Unknown,350,2012-11-01 21:51:00
4:51 PM,39.9,33.1,77,29.89,-9999.0,East,8.1,-,N/A,,Unknown,80,2012-11-01 22:51:00
5:51 PM,39.0,30.9,73,29.92,-9999.0,Calm,Calm,-,N/A,,Unknown,0,2012-11-01 23:51:00
6:51 PM,33.1,32.0,96,29.98,-9999.0,Calm,Calm,-,0.08,,Unknown,0,2012-11-02 00:51:00
7:51 PM,34.0,32.0,92,29.99,-9999.0,Calm,Calm,-,N/A,,Unknown,0,2012-11-02 01:51:00
8:51 PM,33.1,32.0,96,29.99,-9999.0,Variable,3.5,-,N/A,,Unknown,0,2012-11-02 02:51:00
9:51 PM,33.1,30.9,92,29.99,-9999.0,Calm,Calm,-,N/A,,Unknown,0,2012-11-02 03:51:00
10:51 PM,32.0,30.9,96,30.01,-9999.0,South,3.5,-,N/A,,Unknown,170,2012-11-02 04:51:00
11:51 PM,32.0,30.0,92,30.03,-9999.0,NNE,3.5,-,N/A,,Unknown,30,2012-11-02 05:51:00